Regional Weather Roundup
Issued by NWS

Home | Current Version | Previous Version | Text Only | Print | Product List | Glossary Off
Versions: 1 2 3 4 5 6 7 8 9 10 11 12 13 14 15 16 17 18 19 20 21 22 23 24 25 26 27 28 29 30 31 32 33 34 35 36 37 38 39 40 41 42 43 44 45 46 47 48 49 50

000
ASUS45 KCYS 252210
RWRWY

WYOMING REGIONAL WEATHER ROUNDUP
NATIONAL WEATHER SERVICE CHEYENNE WY
400 PM MDT SUN JUN 25 2017

NOTE:  "FAIR" INDICATES FEW OR NO CLOUDS BELOW 12,000 FEET
WITH NO SIGNIFICANT WEATHER AND/OR OBSTRUCTIONS TO VISIBILITY.

WYZ001-252300-
YELLOWSTONE NATIONAL PARK

CITY           SKY/WX    TMP DP  RH WIND       PRES   REMARKS
LK YELLOWSTONE   N/A     68  38  33 VRB5      30.44F
W YELLOWSTONE  NOT AVBL

$$
WYZ002>013-054>058-071-098>099-252300-
NORTHERN WYOMING

CITY           SKY/WX    TMP DP  RH WIND       PRES   REMARKS
JACKSON        SUNNY     75  36  23 CALM      30.33F
CODY           FAIR      76  37  24 NE8       30.29F
GREYBULL       FAIR      81  30  15 MISG      30.21F
WORLAND        FAIR      80  34  19 N9        30.23F
SHERIDAN       FAIR      79  38  22 N9        30.27S
BUFFALO        FAIR      74  38  27 NE9       30.32F
GILLETTE       FAIR      76  32  20 NW10G24   30.27S
NEWCASTLE      FAIR      73  32  21 NW8       30.26S

$$
WYZ014>020-022>026-101>103-252300-
CENTRAL WYOMING

CITY           SKY/WX    TMP DP  RH WIND       PRES   REMARKS
BIG PINEY      FAIR      76  35  22 CALM      30.37F
PINEDALE       FAIR      75  32  20 N12G20    30.38F
DUBOIS         FAIR      75  27  16 N9G15     30.35F
LANDER         FAIR      77  39  25 E6        30.27F
RIVERTON       FAIR      78  34  20 E12       30.28F
CASPER         FAIR      76  29  17 NE7       30.28F
DOUGLAS        PTSUNNY   79  36  21 VRB5      30.28F

$$
WYZ021-027>030-104>119-252300-
SOUTHERN WYOMING

CITY           SKY/WX    TMP DP  RH WIND       PRES   REMARKS
EVANSTON       FAIR      79  31  17 VRB5      30.37F
KEMMERER         N/A     75  27  16 W6        30.40S
FORT BRIDGER   FAIR      80  24  13 CALM      30.40F
ROCK SPRINGS   FAIR      77  23  13 VRB5      30.35F
DIXON          FAIR      82  24  12 NW9       30.34F
RAWLINS        FAIR      77  28  16 N12       30.35F
SARATOGA       FAIR      75  25  15 N14G20    30.37F
LARAMIE        FAIR      75  24  15 N10G23    30.36S
CHEYENNE       FAIR      68  47  46 E12       30.34F
TORRINGTON     FAIR      78  39  24 S6        30.24F
PINE BLUFFS    FAIR      70  48  46 CALM      30.32F

$$



USA.gov is the U.S. government's official web portal to all federal, state and local government web resources and services.